period_start,C,m1,H,J0,J1,J2,J3,J4,J5,JA,JB,JC,JD,JJ,JK,JN,#
2017-03-21 00:02:59,0.51,2.01,1.00,24.89,27.22,30.34,14.43,49.32,1021.52,2029.03,2829.79,2537.63,2899.57,599.91,595.08,3.61,0000 0000 0000 0000 000000
2017-03-21 00:08:00,0.50,2.04,1.00,25.01,27.22,30.34,14.39,49.30,1021.51,2029.03,2821.34,2531.86,2892.88,599.79,594.62,3.66,0000 0000 0000 0000 000000
2017-03-21 00:13:01,0.49,2.06,1.00,25.03,27.22,30.35,14.45,49.30,1021.53,2029.04,2813.19,2526.25,2886.34,600.04,594.89,3.71,0000 0000 0000 0000 000000
2017-03-21 00:18:02,0.50,2.09,1.00,24.89,27.22,30.34,14.43,49.35,1021.51,2029.05,2804.96,2520.60,2879.95,600.10,595.13,3.76,0000 0000 0000 0000 000000
2017-03-21 00:23:04,0.48,2.11,1.00,24.98,27.22,30.36,14.39,49.49,1021.50,2029.07,2796.92,2515.01,2873.69,599.97,594.94,3.81,0000 0000 0000 0000 000000
2017-03-21 00:28:05,0.46,2.14,0.77,25.01,27.22,30.34,14.41,49.38,1021.50,2029.05,2789.18,2509.77,2867.59,599.89,594.76,3.86,0000 0000 0000 0000 000000
2017-03-21 00:33:06,0.46,2.16,0.00,24.91,27.22,30.33,14.46,49.46,1021.47,2029.04,2781.49,2504.60,2861.61,599.88,594.92,3.91,0000 0000 0000 0000 000000
2017-03-21 00:38:08,0.46,2.18,0.00,24.95,27.22,30.33,14.39,49.36,1021.48,2029.04,2773.95,2499.46,2855.73,599.98,594.95,3.96,0000 0000 0000 0000 000000
2017-03-21 00:43:09,0.43,2.20,0.00,25.00,27.22,30.33,14.40,49.50,1021.37,2029.04,2766.59,2494.64,2850.00,600.14,595.06,4.01,0000 0000 0000 0000 000000
2017-03-21 00:48:10,0.45,2.23,0.00,24.98,27.22,30.33,14.40,49.55,1021.24,2029.03,2759.19,2489.76,2844.23,599.99,594.76,4.06,0000 0000 0000 0000 000000
2017-03-21 00:53:11,0.44,2.25,0.00,25.00,27.23,30.32,14.46,49.54,1021.05,2029.01,2752.05,2484.86,2838.58,600.40,595.02,4.11,0000 0000 0000 0000 000000
2017-03-21 00:58:13,0.44,2.27,0.00,24.97,27.24,30.31,14.38,49.51,1021.01,2029.01,2744.93,2480.01,2832.95,599.82,594.52,4.16,0000 0000 0000 0000 000000
2017-03-21 01:03:14,0.45,2.29,0.00,24.79,27.24,30.29,14.53,49.55,1021.01,2029.04,2737.50,2475.05,2827.21,600.24,595.30,4.21,0000 0000 0000 0000 000000
2017-03-21 01:08:16,0.44,2.32,0.00,24.83,27.23,30.27,14.35,49.43,1021.01,2029.02,2730.26,2470.24,2821.65,599.78,594.71,4.26,0000 0000 0000 0000 000000
2017-03-21 01:13:17,0.43,2.34,0.00,24.86,27.22,30.30,14.44,49.38,1021.02,2029.02,2723.22,2465.43,2816.19,599.96,594.89,4.31,0000 0000 0000 0000 000000
2017-03-21 01:18:18,0.44,2.36,0.00,24.72,27.22,30.28,14.42,49.26,1021.00,2029.00,2715.97,2460.61,2810.72,599.91,595.10,4.36,0000 0000 0000 0000 000000
2017-03-21 01:23:20,0.43,2.38,0.00,24.59,27.22,30.30,14.47,49.41,1020.94,2029.00,2709.09,2456.01,2805.40,599.69,595.07,4.41,0000 0000 0000 0000 000000
2017-03-21 01:28:21,0.42,2.40,0.00,24.47,27.22,30.33,14.47,49.54,1020.77,2029.00,2702.28,2451.48,2800.19,600.21,595.81,4.46,0000 0000 0000 0000 000000
2017-03-21 01:33:22,0.43,2.43,0.00,24.33,27.22,30.36,14.51,49.54,1020.65,2029.01,2695.48,2446.96,2794.93,600.25,595.82,4.51,0000 0000 0000 0000 000000
2017-03-21 01:38:23,0.42,2.45,0.00,24.21,27.22,30.38,14.43,49.54,1020.69,2029.00,2688.78,2442.44,2789.71,599.68,595.62,4.56,0000 0000 0000 0000 000000
2017-03-21 01:43:25,0.42,2.47,0.00,24.14,27.22,30.44,14.55,49.41,1020.88,2029.00,2682.06,2437.90,2784.45,600.41,596.61,4.61,0000 0000 0000 0000 000000
2017-03-21 01:48:26,0.42,2.49,0.00,24.02,27.22,30.49,14.51,49.48,1020.95,2029.00,2675.49,2433.54,2779.36,599.72,596.25,4.66,0000 0000 0000 0000 000000
2017-03-21 01:53:28,0.42,2.51,0.00,23.94,27.22,30.52,14.54,49.61,1021.00,2029.00,2668.82,2429.15,2774.17,599.97,596.64,4.71,0000 0000 0000 0000 000000
2017-03-21 01:58:29,0.42,2.53,0.00,23.86,27.22,30.60,14.51,49.62,1021.01,2029.00,2662.21,2424.81,2769.11,599.94,596.95,4.76,0000 0000 0000 0000 000000
2017-03-21 02:03:30,0.42,2.55,0.00,23.78,27.22,30.68,14.56,49.63,1021.00,2029.00,2655.59,2420.42,2764.00,599.80,596.84,4.81,0000 0000 0000 0000 000000
2017-03-21 02:08:31,0.41,2.58,0.00,23.69,27.22,30.76,14.58,49.58,1020.85,2029.00,2649.07,2416.13,2759.05,599.66,596.78,4.86,0000 0000 0000 0000 000000
2017-03-21 02:13:32,0.41,2.60,0.00,23.61,27.22,30.79,14.60,49.66,1020.85,2029.00,2642.61,2411.83,2754.05,600.05,597.41,4.91,0000 0000 0000 0000 000000
2017-03-21 02:18:33,0.42,2.62,0.00,23.51,27.22,30.85,14.60,49.70,1020.73,2029.00,2636.18,2407.49,2749.19,600.27,597.62,4.96,0000 0000 0000 0000 000000
2017-03-21 02:23:34,0.42,2.64,0.00,23.42,27.22,30.83,14.58,49.67,1020.74,2029.00,2629.49,2403.05,2744.08,599.82,597.45,5.01,0000 0000 0000 0000 000000
2017-03-21 02:28:36,0.42,2.66,0.00,23.32,27.21,30.86,14.56,49.77,1020.64,2029.00,2622.99,2398.70,2739.04,599.70,597.45,5.06,0000 0000 0000 0000 000000
2017-03-21 02:33:37,0.43,2.68,0.00,23.24,27.20,30.83,14.65,49.67,1020.55,2029.00,2616.45,2394.29,2733.96,599.99,597.83,5.11,0000 0000 0000 0000 000000
2017-03-21 02:38:38,0.44,2.70,0.00,23.13,27.20,30.77,14.64,49.92,1020.53,2029.01,2609.63,2389.89,2728.76,599.98,597.96,5.16,0000 0000 0000 0000 000000
2017-03-21 02:43:39,0.43,2.73,0.00,23.16,27.17,30.68,14.55,49.90,1020.53,2029.00,2603.01,2385.48,2723.64,599.84,597.80,5.21,0000 0000 0000 0000 000000
2017-03-21 02:48:41,0.42,2.75,0.00,23.27,27.17,30.63,14.62,49.97,1020.53,2029.01,2596.54,2381.17,2718.60,600.19,597.85,5.26,0000 0000 0000 0000 000000
2017-03-21 02:53:42,0.44,2.77,0.00,23.36,27.15,30.61,14.60,49.89,1020.54,2029.06,2589.87,2376.77,2713.46,599.63,597.37,5.31,0000 0000 0000 0000 000000
2017-03-21 02:58:43,0.45,2.79,0.00,23.43,27.15,30.66,14.58,49.91,1020.65,2029.10,2583.18,2372.30,2708.31,599.83,597.33,5.36,0000 0000 0000 0000 000000
2017-03-21 03:03:45,0.45,2.81,0.00,23.44,27.14,30.61,14.54,49.95,1020.78,2029.09,2576.26,2367.72,2702.89,600.10,597.69,5.41,0000 0000 0000 0000 000000
2017-03-21 03:08:47,0.46,2.84,0.00,23.50,27.14,30.62,14.58,49.93,1020.76,2029.07,2569.37,2363.27,2697.51,599.83,597.35,5.46,0000 0000 0000 0000 000000
2017-03-21 03:13:48,0.47,2.86,0.00,23.62,27.13,30.65,14.62,50.02,1020.95,2029.19,2562.54,2358.68,2692.23,600.26,597.55,5.51,0000 0000 0000 0000 000000
2017-03-21 03:18:49,0.43,2.89,0.00,23.66,27.14,30.62,14.69,50.05,1021.00,2029.07,2555.96,2354.15,2686.98,600.42,597.59,5.56,0000 0000 0000 0000 000000
2017-03-21 03:23:50,0.46,2.91,0.00,23.70,27.15,30.63,14.54,50.01,1021.01,2029.05,2549.16,2349.61,2681.79,599.80,597.00,5.61,0000 0000 0000 0000 000000
2017-03-21 03:28:51,0.46,2.93,0.00,23.80,27.15,30.64,14.52,49.91,1021.01,2029.07,2542.28,2345.12,2676.53,599.90,596.96,5.66,0000 0000 0000 0000 000000
2017-03-21 03:33:53,0.45,2.95,0.00,23.86,27.16,30.64,14.60,49.92,1021.01,2029.01,2535.56,2340.61,2671.31,600.01,596.80,5.71,0000 0000 0000 0000 000000
2017-03-21 03:38:54,0.46,2.98,0.00,23.86,27.17,30.65,14.49,49.83,1021.01,2029.01,2528.93,2336.13,2666.15,600.12,597.07,5.76,0000 0000 0000 0000 000000
2017-03-21 03:43:55,0.45,3.00,0.00,23.95,27.20,30.69,14.47,49.79,1021.01,2029.00,2522.23,2331.61,2660.97,600.03,596.74,5.82,0000 0000 0000 0000 000000
2017-03-21 03:48:57,0.45,3.02,0.00,24.00,27.22,30.72,14.48,49.83,1021.00,2029.00,2515.70,2327.31,2655.90,599.95,596.69,5.87,0000 0000 0000 0000 000000
2017-03-21 03:53:58,0.46,3.05,0.00,24.01,27.24,30.74,14.52,49.81,1020.99,2028.99,2509.08,2322.84,2650.76,600.05,596.69,5.92,0000 0000 0000 0000 000000
2017-03-21 03:58:59,0.45,3.07,0.00,24.05,27.27,30.77,14.49,49.79,1020.92,2028.98,2502.47,2318.47,2645.69,599.79,596.28,5.97,0000 0000 0000 0000 000000
2017-03-21 04:04:01,0.44,3.09,0.00,24.26,27.30,30.82,14.57,50.01,1020.75,2028.90,2496.11,2314.15,2640.70,600.30,596.22,6.02,0000 0000 0000 0000 000000
2017-03-21 04:09:02,0.38,3.11,0.00,24.63,27.34,30.83,14.48,50.08,1020.65,2028.47,2489.80,2309.82,2635.72,599.85,594.92,6.07,0000 0000 0000 0000 000000
2017-03-21 04:14:03,0.43,3.13,0.00,24.41,27.37,30.87,14.40,49.93,1020.62,2028.07,2483.28,2305.48,2630.65,599.71,595.34,6.12,0000 0000 0000 0000 000000
2017-03-21 04:19:04,0.44,3.16,0.00,24.55,27.41,30.93,14.50,49.92,1020.59,2028.02,2476.79,2301.32,2625.68,600.10,595.40,6.17,0000 0000 0000 0000 000000
2017-03-21 04:24:06,0.44,3.18,0.00,24.58,27.44,30.93,14.51,49.89,1020.55,2028.00,2470.49,2297.12,2621.01,600.19,595.28,6.22,0000 0000 0000 0000 000000
2017-03-21 04:29:07,0.46,3.20,0.00,24.46,27.47,30.93,14.54,49.98,1020.53,2028.00,2464.02,2292.88,2616.08,600.18,595.52,6.27,0000 0000 0000 0000 000000
2017-03-21 04:34:08,0.44,3.22,0.00,24.41,27.49,30.99,14.51,49.98,1020.53,2028.00,2457.66,2288.81,2611.27,600.06,595.41,6.32,0000 0000 0000 0000 000000
2017-03-21 04:39:09,0.43,3.24,0.00,24.47,27.50,30.97,14.46,49.86,1020.52,2027.99,2451.44,2284.79,2606.50,599.90,595.28,6.37,0000 0000 0000 0000 000000
2017-03-21 04:44:11,0.43,3.27,0.00,24.72,27.51,30.95,14.45,49.91,1020.52,2027.98,2445.28,2280.74,2601.82,599.99,594.87,6.42,0000 0000 0000 0000 000000
2017-03-21 04:49:12,0.43,3.29,0.00,24.54,27.52,30.85,14.54,49.91,1020.52,2027.98,2439.16,2276.75,2597.20,599.97,595.28,6.47,0000 0000 0000 0000 000000
2017-03-21 04:54:13,0.41,3.31,0.00,24.62,27.54,30.85,14.55,49.90,1020.52,2027.96,2433.20,2272.83,2592.65,600.01,595.10,6.52,0000 0000 0000 0000 000000
2017-03-21 04:59:14,0.44,3.33,0.00,24.57,27.55,30.88,14.42,49.84,1020.52,2027.91,2427.17,2268.57,2587.96,600.18,595.36,6.57,0000 0000 0000 0000 000000
2017-03-21 05:04:15,0.43,3.35,0.00,24.48,27.55,30.90,14.52,49.88,1020.52,2027.91,2421.18,2264.65,2583.43,600.04,595.45,6.62,0000 0000 0000 0000 000000
2017-03-21 05:09:17,0.43,3.37,0.00,24.42,27.55,31.06,14.47,49.96,1020.52,2027.88,2415.26,2260.77,2578.93,599.91,595.31,6.67,0000 0000 0000 0000 000000
2017-03-21 05:14:18,0.40,3.40,0.00,24.40,27.55,31.04,14.49,50.04,1020.51,2027.80,2409.42,2256.95,2574.50,599.83,595.49,6.72,0000 0000 0000 0000 000000
2017-03-21 05:19:20,0.41,3.42,0.00,24.66,27.55,30.91,14.48,49.89,1020.46,2027.75,2403.64,2253.15,2570.13,600.14,595.10,6.77,0000 0000 0000 0000 000000
2017-03-21 05:24:21,0.41,3.44,0.00,24.64,27.55,30.83,14.45,50.02,1020.48,2027.49,2397.77,2249.30,2565.70,600.08,595.08,6.82,0000 0000 0000 0000 000000
2017-03-21 05:29:22,0.43,3.46,0.00,24.55,27.55,30.80,14.44,49.99,1020.47,2027.58,2391.92,2245.51,2561.27,600.03,595.29,6.87,0000 0000 0000 0000 000000
2017-03-21 05:34:23,0.38,3.48,0.00,24.67,27.55,30.83,14.42,49.95,1020.38,2027.25,2386.05,2241.66,2556.97,599.93,594.83,6.92,0000 0000 0000 0000 000000
2017-03-21 05:39:24,0.41,3.50,0.00,24.65,27.56,30.85,14.45,50.16,1020.19,2027.07,2380.19,2237.91,2552.55,599.71,594.53,6.97,0000 0000 0000 0000 000000
2017-03-21 05:44:25,0.43,3.52,0.00,24.56,27.56,30.87,14.45,50.14,1020.10,2027.10,2374.46,2234.24,2548.24,600.06,594.96,7.02,0000 0000 0000 0000 000000
2017-03-21 05:49:27,0.40,3.54,0.00,24.65,27.55,30.93,14.48,50.08,1020.09,2027.12,2368.92,2230.70,2544.03,600.03,594.89,7.07,0000 0000 0000 0000 000000
2017-03-21 05:54:28,0.42,3.56,0.00,24.84,27.55,30.84,14.48,50.23,1020.09,2027.06,2363.30,2226.91,2539.63,600.14,594.51,7.12,0000 0000 0000 0000 000000
2017-03-21 05:59:29,0.42,3.58,0.00,24.64,27.56,30.79,14.46,50.08,1020.15,2027.02,2357.47,2223.06,2535.18,599.80,594.62,7.17,0000 0000 0000 0000 000000
2017-03-21 06:04:31,0.41,3.60,0.00,24.68,27.56,30.78,14.39,50.03,1020.14,2027.01,2351.82,2219.40,2530.93,599.88,594.61,7.22,0000 0000 0000 0000 000000
2017-03-21 06:09:32,0.42,3.63,0.00,24.70,27.57,30.76,14.43,50.08,1020.08,2027.01,2346.11,2215.71,2526.58,599.86,594.52,7.27,0000 0000 0000 0000 000000
2017-03-21 06:14:34,0.42,3.65,0.00,24.59,27.56,30.79,14.51,50.02,1020.07,2027.03,2340.59,2212.08,2522.37,600.20,595.01,7.32,0000 0000 0000 0000 000000
2017-03-21 06:19:35,0.41,3.67,0.00,24.55,27.55,30.90,14.45,50.11,1020.06,2027.03,2335.05,2208.43,2518.17,600.04,594.94,7.37,0000 0000 0000 0000 000000
2017-03-21 06:24:36,0.40,3.69,0.00,24.58,27.55,30.87,14.51,50.08,1020.05,2027.02,2329.53,2204.83,2514.04,600.29,595.16,7.42,0000 0000 0000 0000 000000
2017-03-21 06:29:38,0.40,3.71,0.00,24.83,27.55,30.82,14.39,50.02,1020.04,2027.01,2324.19,2201.31,2510.02,600.01,594.46,7.47,0000 0000 0000 0000 000000
2017-03-21 06:34:39,0.42,3.73,0.00,24.67,27.55,30.76,14.46,49.98,1020.05,2027.02,2318.74,2197.73,2505.86,599.76,594.40,7.52,0000 0000 0000 0000 000000
2017-03-21 06:39:40,0.41,3.75,0.00,24.61,27.55,30.73,14.48,49.97,1020.05,2027.01,2313.25,2194.12,2501.70,599.80,594.58,7.57,0000 0000 0000 0000 000000
2017-03-21 06:44:41,0.40,3.77,0.00,24.71,27.55,30.74,14.43,49.92,1020.06,2027.01,2307.97,2190.69,2497.70,599.97,594.65,7.62,0000 0000 0000 0000 000000
2017-03-21 06:49:42,0.41,3.79,0.00,24.68,27.55,30.77,14.45,49.90,1020.08,2027.01,2302.70,2187.17,2493.80,599.82,594.36,7.67,0000 0000 0000 0000 000000
2017-03-21 06:54:43,0.40,3.81,0.00,24.59,27.55,30.81,14.40,49.85,1020.08,2027.00,2297.42,2183.77,2489.86,599.60,594.70,7.72,0000 0000 0000 0000 000000
2017-03-21 06:59:44,0.40,3.83,0.00,24.70,27.54,30.81,14.46,49.88,1020.06,2027.00,2292.14,2180.32,2485.85,600.06,594.70,7.77,0000 0000 0000 0000 000000
2017-03-21 07:04:46,0.40,3.85,0.00,24.78,27.54,30.76,14.43,50.05,1020.06,2027.00,2286.96,2176.92,2481.96,599.93,594.40,7.82,0000 0000 0000 0000 000000
2017-03-21 07:09:47,0.40,3.87,0.00,24.61,27.52,30.72,14.54,49.94,1020.10,2027.00,2281.66,2173.54,2477.90,600.32,595.20,7.87,0000 0000 0000 0000 000000
2017-03-21 07:14:48,0.39,3.89,0.00,24.76,27.52,30.71,14.54,49.90,1020.20,2027.00,2276.58,2170.21,2474.04,599.88,594.41,7.92,0000 0000 0000 0000 000000
2017-03-21 07:19:49,0.40,3.91,0.00,24.81,27.52,30.70,14.46,49.81,1020.23,2027.00,2271.42,2166.83,2470.17,599.95,594.54,7.97,0000 0000 0000 0000 000000
2017-03-21 07:24:50,0.39,3.93,0.00,24.83,27.52,30.72,14.49,49.84,1020.13,2027.00,2266.28,2163.46,2466.27,600.36,594.78,8.02,0000 0000 0000 0000 000000
2017-03-21 07:29:52,0.39,3.95,0.00,24.82,27.52,30.70,14.48,49.92,1020.06,2027.00,2261.24,2160.15,2462.42,600.21,594.60,8.07,0000 0000 0000 0000 000000
2017-03-21 07:34:53,0.40,3.97,0.00,24.82,27.52,30.68,14.46,50.13,1020.05,2027.00,2256.12,2156.83,2458.59,599.81,594.27,8.12,0000 0000 0000 0000 000000
2017-03-21 07:39:54,0.40,3.99,0.00,24.85,27.52,30.68,14.45,49.93,1020.08,2027.00,2251.00,2153.49,2454.69,600.27,594.67,8.18,0000 0000 0000 0000 000000
2017-03-21 07:44:56,0.41,4.01,0.00,24.85,27.52,30.68,14.45,50.04,1020.05,2027.00,2245.81,2150.11,2450.79,599.78,594.11,8.23,0000 0000 0000 0000 000000
2017-03-21 07:49:57,0.41,4.04,0.00,24.81,27.50,30.67,14.49,50.10,1020.05,2027.00,2240.77,2146.71,2446.88,600.06,594.46,8.28,0000 0000 0000 0000 000000
2017-03-21 07:54:58,0.39,4.06,0.00,24.79,27.50,30.64,14.44,49.89,1020.05,2027.00,2235.81,2143.39,2443.00,599.95,594.36,8.33,0000 0000 0000 0000 000000
2017-03-21 07:59:59,0.39,4.08,0.00,24.68,27.50,30.64,14.41,50.02,1020.08,2027.00,2230.80,2140.13,2439.25,600.09,594.77,8.38,0000 0000 0000 0000 000000
2017-03-21 08:05:01,0.40,4.10,0.00,24.63,27.47,30.65,14.46,49.94,1020.11,2027.00,2225.73,2136.84,2435.43,599.62,594.43,8.43,0000 0000 0000 0000 000000
2017-03-21 08:10:02,0.40,4.12,0.00,24.66,27.47,30.65,14.46,50.20,1020.33,2027.00,2220.79,2133.62,2431.76,600.08,595.00,8.48,0000 0000 0000 0000 000000
2017-03-21 08:15:03,0.38,4.14,0.00,24.88,27.47,30.65,14.44,49.92,1020.49,2027.00,2216.01,2130.47,2428.19,600.00,594.52,8.53,0000 0000 0000 0000 000000
2017-03-21 08:20:04,0.40,4.16,0.00,24.75,27.47,30.63,14.50,49.82,1020.47,2027.00,2211.13,2127.27,2424.46,599.93,594.62,8.58,0000 0000 0000 0000 000000
2017-03-21 08:25:05,0.38,4.18,0.00,24.68,27.45,30.62,14.44,49.91,1020.46,2027.00,2206.30,2124.13,2420.81,600.02,594.93,8.63,0000 0000 0000 0000 000000
2017-03-21 08:30:06,0.37,4.20,0.00,24.80,27.46,30.64,14.42,49.77,1020.41,2027.00,2201.61,2121.05,2417.25,599.97,594.62,8.68,0000 0000 0000 0000 000000
2017-03-21 08:35:07,0.38,4.21,0.00,24.85,27.47,30.66,14.40,49.67,1020.13,2027.00,2197.05,2117.99,2413.77,599.80,594.26,8.73,0000 0000 0000 0000 000000
2017-03-21 08:40:09,0.37,4.23,0.00,24.88,27.47,30.69,14.47,49.86,1020.05,2027.00,2192.39,2114.97,2410.25,600.18,594.38,8.78,0000 0000 0000 0000 000000
2017-03-21 08:45:10,0.38,4.25,0.00,24.87,27.47,30.67,14.42,50.01,1020.05,2027.00,2187.79,2112.03,2406.80,599.91,594.22,8.83,0000 0000 0000 0000 000000
2017-03-21 08:50:11,0.36,4.27,0.00,24.86,27.47,30.66,14.45,49.89,1020.04,2027.00,2183.20,2109.22,2403.34,600.18,594.49,8.88,0000 0000 0000 0000 000000
2017-03-21 08:55:12,0.37,4.29,0.00,24.86,27.47,30.66,14.48,49.83,1020.05,2027.00,2178.73,2106.30,2399.99,599.98,594.32,8.93,0000 0000 0000 0000 000000
2017-03-21 09:00:14,0.34,4.31,0.00,24.87,27.47,30.65,14.44,49.95,1020.06,2026.99,2174.42,2103.45,2396.67,599.82,594.27,8.98,0000 0000 0000 0000 000000
2017-03-21 09:05:15,0.37,4.33,0.00,24.87,27.46,30.64,14.44,49.77,1020.13,2026.99,2170.07,2100.59,2393.34,599.91,594.22,9.03,0000 0000 0000 0000 000000
2017-03-21 09:10:16,0.35,4.34,0.00,24.85,27.45,30.62,14.47,49.80,1020.36,2026.99,2165.73,2097.80,2390.09,600.01,594.52,9.08,0000 0000 0000 0000 000000
2017-03-21 09:15:17,0.36,4.36,0.00,24.85,27.45,30.63,14.43,49.77,1020.33,2026.99,2161.45,2095.01,2386.85,600.00,594.42,9.13,0000 0000 0000 0000 000000
2017-03-21 09:20:18,0.35,4.38,0.00,24.80,27.45,30.59,14.48,49.81,1020.29,2026.99,2157.19,2092.26,2383.66,600.05,594.59,9.18,0000 0000 0000 0000 000000
2017-03-21 09:25:20,0.36,4.40,0.00,24.69,27.43,30.59,14.41,49.75,1020.29,2026.99,2152.88,2089.43,2380.39,599.81,594.61,9.23,0000 0000 0000 0000 000000
2017-03-21 09:30:21,0.34,4.41,0.00,24.66,27.42,30.61,14.40,49.77,1020.39,2026.99,2148.73,2086.70,2377.24,599.75,594.65,9.28,0000 0000 0000 0000 000000
2017-03-21 09:35:23,0.35,4.43,0.00,24.88,27.42,30.62,14.45,49.88,1020.45,2026.99,2144.59,2084.00,2374.08,600.09,594.65,9.33,0000 0000 0000 0000 000000
2017-03-21 09:40:24,0.36,4.45,0.00,24.71,27.41,30.59,14.47,49.83,1020.49,2026.99,2140.26,2081.23,2370.87,600.04,594.84,9.38,0000 0000 0000 0000 000000
2017-03-21 09:45:25,0.35,4.47,0.00,24.73,27.40,30.59,14.48,49.86,1020.50,2026.99,2135.99,2078.41,2367.74,599.68,594.61,9.43,0000 0000 0000 0000 000000
2017-03-21 09:50:26,0.34,4.49,0.00,24.81,27.40,30.60,14.44,49.69,1020.52,2026.99,2131.95,2075.69,2364.72,599.99,594.60,9.48,0000 0000 0000 0000 000000
2017-03-21 09:55:28,0.37,4.50,0.00,24.83,27.40,30.63,14.38,49.64,1020.52,2026.99,2127.79,2072.92,2361.50,599.76,594.35,9.53,0000 0000 0000 0000 000000
2017-03-21 10:00:29,0.33,4.52,0.00,24.85,27.40,30.63,14.46,49.70,1020.52,2026.99,2123.79,2070.26,2358.47,599.94,594.58,9.58,0000 0000 0000 0000 000000
2017-03-21 10:05:31,0.34,4.54,0.00,24.84,27.40,30.63,14.45,49.75,1020.52,2026.99,2119.83,2067.67,2355.42,600.14,594.78,9.63,0000 0000 0000 0000 000000
2017-03-21 10:10:32,0.34,4.56,0.00,24.87,27.40,30.59,14.45,49.68,1020.52,2026.99,2115.88,2065.04,2352.45,599.98,594.49,9.68,0000 0000 0000 0000 000000
2017-03-21 10:15:33,0.33,4.57,0.00,24.90,27.40,30.60,14.41,49.63,1020.52,2026.99,2111.98,2062.45,2349.41,599.89,594.38,9.73,0000 0000 0000 0000 000000
2017-03-21 10:20:34,0.34,4.59,0.00,24.89,27.40,30.59,14.50,49.76,1020.52,2026.99,2108.17,2059.88,2346.43,600.22,594.75,9.78,0000 0000 0000 0000 000000
2017-03-21 10:25:36,0.34,4.61,0.00,24.87,27.40,30.57,14.44,49.67,1020.52,2026.99,2104.19,2057.29,2343.41,600.04,594.71,9.83,0000 0000 0000 0000 000000
2017-03-21 10:30:37,0.34,4.62,0.00,24.87,27.39,30.60,14.42,49.57,1020.52,2026.99,2100.28,2054.69,2340.42,599.93,594.52,9.88,0000 0000 0000 0000 000000
2017-03-21 10:35:38,0.33,4.64,0.00,24.87,27.38,30.59,14.41,49.63,1020.52,2026.98,2096.37,2052.17,2337.45,599.86,594.39,9.93,0000 0000 0000 0000 000000
2017-03-21 10:40:40,0.35,4.66,0.00,24.85,27.37,30.58,14.40,49.73,1020.52,2026.98,2092.43,2049.56,2334.43,599.93,594.50,9.98,0000 0000 0000 0000 000000
2017-03-21 10:45:41,0.32,4.68,0.00,24.86,27.37,30.56,14.36,49.63,1020.52,2026.99,2088.60,2047.10,2331.51,599.46,594.05,10.03,0000 0000 0000 0000 000000
2017-03-21 10:50:42,0.33,4.69,0.00,24.85,27.37,30.55,14.46,49.58,1020.51,2026.99,2084.82,2044.81,2328.62,600.34,594.93,10.08,0000 0000 0000 0000 000000
2017-03-21 10:55:43,0.35,4.71,0.00,24.88,27.37,30.55,14.49,49.70,1020.47,2026.99,2080.92,2042.24,2325.67,600.33,594.75,10.13,0000 0000 0000 0000 000000
2017-03-21 11:00:44,0.34,4.73,0.00,24.88,27.35,30.55,14.34,49.92,1020.08,2026.99,2076.79,2039.73,2322.70,599.47,593.82,10.18,0000 0000 0000 0000 000000
2017-03-21 11:05:46,0.36,4.75,0.00,24.87,27.35,30.53,14.37,50.15,1020.04,2026.99,2072.69,2037.12,2319.65,599.63,593.94,10.23,0000 0000 0000 0000 000000
2017-03-21 11:10:47,0.34,4.76,0.00,24.88,27.35,30.55,14.34,50.13,1020.04,2026.99,2068.71,2034.50,2316.63,599.80,594.06,10.28,0000 0000 0000 0000 000000
2017-03-21 11:15:48,0.33,4.78,0.00,24.86,27.35,30.54,14.42,50.13,1020.04,2026.99,2064.87,2032.01,2313.71,600.30,594.63,10.33,0000 0000 0000 0000 000000
2017-03-21 11:20:50,0.34,4.80,0.00,24.84,27.35,30.53,14.56,49.94,1020.04,2026.99,2061.10,2029.46,2310.80,600.46,594.62,10.38,0000 0000 0000 0000 000000
2017-03-21 11:25:51,0.33,4.81,0.00,24.83,27.34,30.52,14.37,49.79,1020.04,2026.99,2057.45,2026.97,2307.97,599.93,594.30,10.43,0000 0000 0000 0000 000000
2017-03-21 11:30:53,0.34,4.83,0.00,24.80,27.33,30.49,14.44,49.77,1020.05,2026.99,2053.65,2024.43,2305.00,599.88,594.34,10.49,0000 0000 0000 0000 000000
2017-03-21 11:35:54,0.33,4.85,0.00,24.66,27.32,30.48,14.39,49.81,1020.04,2026.99,2049.94,2021.89,2302.19,599.75,594.45,10.54,0000 0000 0000 0000 000000
2017-03-21 11:40:56,0.33,4.87,0.00,24.68,27.32,30.48,14.48,49.83,1020.04,2026.99,2046.36,2019.39,2299.36,599.98,594.62,10.59,0000 0000 0000 0000 000000
2017-03-21 11:45:57,0.33,4.88,0.00,24.92,27.32,30.51,14.46,49.72,1020.04,2026.99,2042.74,2016.93,2296.52,600.09,594.27,10.64,0000 0000 0000 0000 000000
2017-03-21 11:50:58,0.33,4.90,0.00,24.75,27.32,30.51,14.40,49.77,1020.05,2026.99,2038.98,2014.47,2293.66,599.84,594.25,10.69,0000 0000 0000 0000 000000
2017-03-21 11:55:59,0.33,4.92,0.00,24.73,27.32,30.52,14.47,49.73,1020.04,2026.99,2035.31,2011.94,2290.78,600.31,594.89,10.74,0000 0000 0000 0000 000000
2017-03-21 12:01:00,0.32,4.93,0.00,24.85,27.32,30.54,14.48,49.81,1020.04,2026.99,2031.71,2009.50,2288.04,600.01,594.33,10.79,0000 0000 0000 0000 000000
2017-03-21 12:06:01,0.33,4.95,0.00,24.91,27.32,30.56,14.45,49.67,1020.04,2026.99,2028.06,2007.15,2285.29,600.14,594.30,10.84,0000 0000 0000 0000 000000
2017-03-21 12:11:03,0.32,4.97,0.00,24.93,27.33,30.56,14.43,49.67,1020.00,2026.99,2024.46,2004.82,2282.59,600.11,594.26,10.89,0000 0000 0000 0000 000000
2017-03-21 12:16:04,0.32,4.98,0.00,24.97,27.34,30.56,14.32,49.69,1019.90,2026.98,2020.96,2002.45,2279.89,599.82,593.86,10.94,0000 0000 0000 0000 000000
2017-03-21 12:21:05,0.33,5.00,0.00,24.95,27.35,30.54,14.42,49.83,1019.63,2026.98,2017.39,2000.13,2277.16,600.04,594.05,10.99,0000 0000 0000 0000 000000
2017-03-21 12:26:06,0.31,5.02,0.00,24.94,27.35,30.54,14.44,49.73,1019.56,2026.98,2013.90,1997.82,2274.51,599.92,593.77,11.04,0000 0000 0000 0000 000000
2017-03-21 12:31:08,0.33,5.03,0.00,24.94,27.35,30.54,14.38,49.89,1019.56,2026.97,2010.25,1995.47,2271.81,600.05,593.92,11.09,0000 0000 0000 0000 000000
2017-03-21 12:36:09,0.33,5.05,0.00,24.94,27.35,30.53,14.39,49.77,1019.55,2026.96,2006.76,1993.22,2269.11,599.72,593.61,11.14,0000 0000 0000 0000 000000
2017-03-21 12:41:10,0.32,5.07,0.00,24.92,27.35,30.51,14.44,49.92,1019.54,2026.96,2003.15,1990.95,2266.43,600.28,594.18,11.19,0000 0000 0000 0000 000000
2017-03-21 12:46:11,0.32,5.08,0.00,24.90,27.34,30.51,14.45,49.90,1019.48,2026.97,1999.60,1988.65,2263.78,600.30,594.12,11.24,0000 0000 0000 0000 000000
2017-03-21 12:51:12,0.32,5.10,0.00,24.90,27.34,30.51,14.43,49.98,1019.50,2026.97,1996.12,1986.35,2261.15,600.17,594.01,11.29,0000 0000 0000 0000 000000
2017-03-21 12:56:14,0.32,5.11,0.00,24.94,27.33,30.53,14.42,50.05,1019.42,2026.97,1992.69,1984.09,2258.50,599.83,593.62,11.34,0000 0000 0000 0000 000000
2017-03-21 13:01:15,0.31,5.13,0.00,24.93,27.32,30.50,14.37,50.07,1019.39,2026.97,1989.15,1981.98,2255.87,600.08,593.90,11.39,0000 0000 0000 0000 000000